GW5169 Weather Reports


time (UTC)temp
F
wind
direction
speed
knots
gust
knots
rain 1hr
in
rain 24hr
in
rain mn
in
humidity
%
barometer
mb
20260504034855 60 337 1.7 2.6 0.00 0.01 0.01 41 1007.9
20260504034353 61 266 2.6 2.6 0.00 0.01 0.01 41 1007.9
20260504033850 61 225 1.7 2.6 0.00 0.01 0.01 41 1007.9
20260504033348 61 318 1.7 1.7 0.00 0.01 0.01 41 1008.0
20260504032844 61 282 1.7 2.6 0.00 0.01 0.01 41 1007.9
20260504032341 61 271 2.6 2.6 0.00 0.01 0.01 41 1008.1
20260504031838 61 299 2.6 2.6 0.00 0.01 0.01 40 1008.0
20260504031335 61 283 0.9 1.7 0.00 0.01 0.01 40 1008.1
20260504030831 61 280 1.7 1.7 0.00 0.01 0.01 40 1008.0
20260504030329 61 296 1.7 1.7 0.00 0.01 0.01 41 1007.9
20260504025825 61 262 1.7 1.7 0.00 0.01 0.01 42 1007.9
20260504025322 61 254 0.9 0.9 0.00 0.01 0.01 42 1008.0
20260504024819 61 305 0.9 0.9 0.00 0.01 0.01 43 1007.9
20260504024315 61 273 0.9 0.9 0.00 0.01 0.01 43 1008.0
20260504023812 61 63 0.0 0.0 0.00 0.01 0.01 42 1007.9
20260504023309 62 293 0.9 0.9 0.00 0.01 0.01 41 1007.8
20260504022805 62 19 0.0 0.9 0.00 0.01 0.01 41 1007.7
20260504022301 62 2 0.9 0.9 0.00 0.01 0.01 41 1007.7
20260504021758 63 17 0.9 0.9 0.00 0.01 0.01 39 1007.7
20260504021256 63 319 0.9 1.7 0.00 0.01 0.01 38 1007.7
20260504020752 64 2 0.9 0.9 0.00 0.01 0.01 38 1007.9
20260504020249 64 324 1.7 1.7 0.00 0.01 0.01 38 1007.7
20260504015745 64 331 2.6 2.6 0.00 0.01 0.01 38 1007.6
20260504015242 64 35 0.9 1.7 0.00 0.01 0.01 37 1007.7
20260504014737 65 40 0.9 0.9 0.00 0.01 0.01 37 1007.6
20260504014234 66 307 0.9 1.7 0.00 0.01 0.01 35 1007.7
20260504013732 66 312 0.9 1.7 0.00 0.01 0.01 35 1007.6
20260504013229 67 260 1.7 2.6 0.00 0.01 0.01 34 1007.3
20260504012726 67 286 1.7 1.7 0.00 0.01 0.01 33 1007.5
20260504012224 68 291 3.5 6.1 0.00 0.01 0.01 33 1007.4
20260504011720 68 313 2.6 3.5 0.00 0.01 0.01 32 1007.2
20260504011217 68 273 0.9 1.7 0.00 0.01 0.01 32 1007.2
20260504010713 69 328 3.5 3.5 0.00 0.01 0.01 31 1007.1
20260504010209 69 269 2.6 3.5 0.00 0.01 0.01 31 1007.0
20260504005705 70 279 2.6 3.5 0.00 0.01 0.01 30 1006.8
20260504005203 70 289 4.3 5.2 0.00 0.01 0.01 30 1006.9
20260504004700 70 251 5.2 7.0 0.00 0.01 0.01 29 1007.0
20260504004157 71 295 3.5 3.5 0.00 0.01 0.01 29 1007.1
20260504003653 71 265 3.5 5.2 0.00 0.01 0.01 28 1007.0
20260504003151 72 243 2.6 3.5 0.00 0.01 0.01 28 1006.9
20260504002647 72 243 1.7 2.6 0.00 0.01 0.01 27 1006.9
20260504002145 72 289 2.6 3.5 0.00 0.01 0.01 27 1006.9
20260504001643 72 281 4.3 5.2 0.00 0.01 0.01 27 1006.8
20260504001138 73 278 3.5 5.2 0.00 0.01 0.01 28 1006.9
20260504000636 73 281 3.5 3.5 0.00 0.01 0.01 27 1006.7
20260504000133 73 288 5.2 7.0 0.00 0.01 0.01 27 1006.8
20260503235631 73 324 5.2 6.1 0.00 0.01 0.01 27 1006.8
20260503235127 73 309 3.5 3.5 0.00 0.01 0.01 25 1006.8
20260503234626 73 297 5.2 6.1 0.00 0.01 0.01 24 1006.7
20260503234123 74 292 7.0 8.7 0.00 0.01 0.01 24 1006.6
20260503233620 74 349 4.3 6.1 0.00 0.01 0.01 25 1006.7
20260503233116 74 303 7.0 7.8 0.00 0.01 0.01 25 1006.6
20260503232613 74 298 4.3 7.0 0.00 0.01 0.01 25 1006.7
20260503232110 74 323 7.8 8.7 0.00 0.01 0.01 25 1006.7
20260503231608 74 335 4.3 5.2 0.00 0.01 0.01 25 1006.5
20260503231104 75 312 7.8 13.0 0.00 0.01 0.01 25 1006.8
20260503230601 74 297 7.8 8.7 0.00 0.01 0.01 25 1006.6
20260503230058 75 265 7.8 8.7 0.00 0.01 0.01 24 1006.7
20260503225555 75 291 7.0 8.7 0.00 0.01 0.01 25 1006.5
20260503225050 75 12 7.8 9.6 0.00 0.01 0.01 25 1006.6
20260503224548 75 258 6.1 8.7 0.00 0.01 0.01 25 1006.4
20260503224046 75 286 6.1 12.2 0.00 0.01 0.01 25 1006.5
20260503223544 75 301 11.3 14.8 0.00 0.01 0.01 27 1006.4
20260503223039 76 290 4.3 5.2 0.00 0.01 0.01 27 1006.3
20260503222537 75 305 4.3 5.2 0.00 0.01 0.01 27 1006.4
20260503222035 75 0 7.0 7.8 0.00 0.01 0.01 26 1006.4
20260503221533 75 265 4.3 6.1 0.00 0.01 0.01 26 1006.4
20260503221030 75 334 7.8 9.6 0.00 0.01 0.01 27 1006.4
20260503220526 75 302 4.3 5.2 0.00 0.01 0.01 27 1006.3
20260503220023 76 300 5.2 6.1 0.00 0.01 0.01 27 1006.3
20260503215520 76 280 8.7 12.2 0.00 0.01 0.01 27 1006.3
20260503215017 75 314 5.2 7.0 0.00 0.01 0.01 27 1006.4
20260503214516 75 270 6.1 7.0 0.00 0.01 0.01 28 1006.3
20260503214012 75 296 5.2 7.0 0.00 0.01 0.01 27 1006.4
20260503213510 75 251 7.0 9.6 0.00 0.01 0.01 27 1006.3
20260503213007 75 298 4.3 6.1 0.00 0.01 0.01 28 1006.3
20260503212504 75 281 5.2 7.0 0.00 0.01 0.01 28 1006.2
20260503212001 75 308 6.1 7.0 0.00 0.01 0.01 29 1006.4
20260503211458 76 304 8.7 13.0 0.00 0.01 0.01 30 1006.1
20260503210954 75 263 5.2 7.0 0.00 0.01 0.01 29 1006.2
20260503210451 75 294 7.8 11.3 0.00 0.01 0.01 28 1006.3
20260503205951 75 327 6.1 7.0 0.00 0.01 0.01 30 1006.4
20260503205449 75 251 2.6 3.5 0.00 0.01 0.01 30 1006.6
20260503204944 75 274 7.0 7.8 0.00 0.01 0.01 29 1006.4
20260503204442 76 270 7.0 9.6 0.00 0.01 0.01 28 1006.4
20260503203939 75 262 7.8 8.7 0.00 0.01 0.01 27 1006.2
20260503203437 75 263 7.8 9.6 0.00 0.01 0.01 28 1006.4
20260503202933 75 307 7.8 8.7 0.00 0.01 0.01 29 1006.6
20260503202431 76 306 3.5 5.2 0.00 0.01 0.01 29 1006.6
20260503201930 75 202 3.5 5.2 0.00 0.01 0.01 29 1006.8
20260503201426 74 285 8.7 9.6 0.00 0.01 0.01 29 1006.8
20260503200924 75 233 7.0 13.0 0.00 0.01 0.01 30 1006.7
20260503200420 75 263 11.3 13.9 0.00 0.01 0.01 29 1006.7
20260503195917 74 302 4.3 6.1 0.00 0.01 0.01 31 1006.8
20260503195414 74 292 3.5 5.2 0.00 0.01 0.01 30 1006.8
20260503194911 74 334 4.3 7.0 0.00 0.01 0.01 31 1007.0
20260503194407 74 284 7.8 9.6 0.00 0.01 0.01 31 1006.9
20260503193903 74 223 7.8 12.2 0.00 0.01 0.01 32 1007.0
20260503193359 73 268 2.6 3.5 0.00 0.01 0.01 33 1007.1
20260503192854 74 280 11.3 13.0 0.00 0.01 0.01 31 1007.1
20260503192350 74 332 8.7 9.6 0.00 0.01 0.01 34 1007.0
20260503191847 73 325 1.7 2.6 0.00 0.01 0.01 34 1007.2
20260503191344 73 269 8.7 12.2 0.00 0.01 0.01 33 1007.2
20260503190841 73 300 7.8 9.6 0.00 0.01 0.01 34 1007.2
20260503190338 73 276 5.2 6.1 0.00 0.01 0.01 34 1007.2
20260503185835 73 262 4.3 6.1 0.00 0.01 0.01 34 1007.3
20260503185331 72 329 0.9 1.7 0.00 0.01 0.01 34 1007.3
20260503184826 72 268 7.8 8.7 0.00 0.01 0.01 35 1007.3
20260503184322 71 277 9.6 13.0 0.00 0.01 0.01 35 1007.4
20260503183818 71 253 5.2 6.1 0.00 0.01 0.01 35 1007.5
20260503183315 71 258 7.0 8.7 0.00 0.01 0.01 36 1007.5
20260503182813 71 270 6.1 8.7 0.00 0.01 0.01 36 1007.5
20260503182312 71 270 9.6 11.3 0.00 0.01 0.01 36 1007.6
20260503181809 70 249 4.3 5.2 0.00 0.01 0.01 37 1007.8
20260503181306 69 137 5.2 7.0 0.00 0.01 0.01 36 1007.9
20260503180802 70 248 5.2 7.8 0.00 0.01 0.01 37 1008.0
20260503180300 69 279 2.6 6.1 0.00 0.01 0.01 37 1007.9
20260503175756 69 277 9.6 12.2 0.00 0.01 0.01 37 1008.1
20260503175254 69 237 1.7 2.6 0.00 0.01 0.01 37 1008.2
20260503174749 68 292 5.2 7.0 0.00 0.01 0.01 38 1008.3
20260503174248 68 302 10.4 13.9 0.00 0.01 0.01 37 1008.2
20260503173748 68 257 5.2 6.1 0.00 0.01 0.01 38 1008.4
20260503173244 68 280 7.8 8.7 0.00 0.01 0.01 38 1008.4
20260503172741 67 279 6.1 8.7 0.00 0.01 0.01 39 1008.3
20260503172238 68 344 7.0 9.6 0.00 0.01 0.01 38 1008.6
20260503171735 67 284 2.6 2.6 0.00 0.01 0.01 39 1008.4
20260503171232 67 136 1.7 2.6 0.00 0.01 0.01 38 1008.6
20260503170729 66 122 2.6 3.5 0.00 0.01 0.01 39 1008.6
20260503170226 65 26 4.3 6.1 0.00 0.01 0.01 39 1008.8
20260503160147 61 258 7.8 9.6 0.00 0.01 0.01 43 1009.4
20260503150617 60 209 7.0 12.2 0.00 0.01 0.01 44 1009.8
20260503150113 59 104 3.5 5.2 0.00 0.01 0.01 45 1009.9
20260503131007 52 192 3.5 3.5 0.00 0.01 0.01 61 1011.2
20260503130504 52 133 3.5 3.5 0.00 0.01 0.01 59 1011.5
20260503110355 50 132 2.6 5.2 0.00 0.01 0.01 62 1013.7
20260503090246 52 34 0.9 0.9 0.00 0.01 0.01 58 1014.6
20260503081208 54 282 7.8 12.2 0.00 0.00 0.00 47 1014.3
20260503080703 52 262 5.2 7.8 0.00 0.00 0.00 49 1014.1
20260503080200 53 262 5.2 7.0 0.00 0.00 0.00 49 1014.1
20260503072637 52 111 2.6 3.5 0.00 0.00 0.00 47 1014.2
20260503072134 52 47 2.6 3.5 0.00 0.00 0.00 47 1014.2
20260503071631 53 270 1.7 1.7 0.00 0.00 0.00 47 1014.2
20260503071127 52 349 1.7 2.6 0.00 0.00 0.00 47 1014.0
20260503070625 52 321 3.5 7.0 0.00 0.00 0.00 47 1014.1
20260503070123 52 51 1.7 1.7 0.00 0.00 0.00 47 1014.4
20260503055043 52 59 0.9 1.7 0.00 0.00 0.00 47 1014.9
20260503054539 52 248 1.7 2.6 0.00 0.00 0.00 46 1014.9
20260503054037 52 220 3.5 5.2 0.00 0.00 0.00 46 1015.0
20260503053535 52 46 0.9 1.7 0.00 0.00 0.00 46 1015.0
20260503053032 52 88 1.7 2.6 0.00 0.00 0.00 47 1015.0
20260503052529 52 124 1.7 3.5 0.00 0.00 0.00 47 1015.0
20260503052025 52 342 3.5 5.2 0.00 0.00 0.00 47 1015.1
20260503051520 52 180 1.7 2.6 0.00 0.00 0.00 47 1015.2
20260503051019 52 338 0.9 1.7 0.00 0.00 0.00 47 1015.2
20260503050514 52 304 2.6 5.2 0.00 0.00 0.00 47 1015.3
20260503050012 52 90 0.9 1.7 0.00 0.00 0.00 47 1015.2
20260503045509 52 97 1.7 1.7 0.00 0.00 0.00 47 1015.3
20260503045006 52 345 1.7 2.6 0.00 0.00 0.00 47 1015.3
20260503044502 52 326 1.7 2.6 0.00 0.00 0.00 47 1015.4
20260503044000 52 344 0.9 1.7 0.00 0.00 0.00 47 1015.3
20260503043456 52 84 0.9 0.9 0.00 0.00 0.00 47 1015.2
20260503042952 52 75 2.6 3.5 0.00 0.00 0.00 46 1015.5
20260503042449 52 328 0.9 1.7 0.00 0.00 0.00 47 1015.5
20260503041946 52 342 3.5 5.2 0.00 0.00 0.00 47 1015.5
20260503041443 52 36 2.6 3.5 0.00 0.00 0.00 47 1015.7
20260503040940 52 61 1.7 5.2 0.00 0.00 0.00 47 1015.6
20260503040437 52 105 0.9 1.7 0.00 0.00 0.00 47 1015.6
20260503035935 52 137 1.7 2.6 0.00 0.00 0.00 47 1015.7
20260503035431 52 162 1.7 2.6 0.00 0.00 0.00 46 1015.9
20260503034929 52 87 1.7 2.6 0.00 0.00 0.00 46 1015.9